Погода в Шардаре

Казахстан     41°15′24″N   67°58′07″E
темп.,
°C
ветер,
м/с
пор.,
м/с
влажн.,
%
обл.,
%
осадки,
мм/ч
давл.,
гПа
погр.,
м
2 марта, вт
вт200:00+12ююз57420 0.0 1021144
03:00+11зюз45420 0.0 1021117
06:00+9з23499 0.0 1022120
09:00+9юз114851 0.0 1023113
12:00+12зсз233753 0.0 1023368
15:00+14сз443362 0.0 1022769
18:00+13ссз553554 0.0 1022780
21:00+10с674589 0.0 1024375
3 марта, ср
ср300:00+8ссв685994 0.0 1024364
03:00+7с576999 0.0 1025341
06:00+5с687492 0.0 1025338
09:00+5с457271 0.0 1025319
12:00+8ссв336178 0.0 1023468
15:00+11ссв2251100 0.0 1021808
18:00+11с655498 0.0 1021834
21:00+9ссв457187 0.0 1022280
4 марта, чт
чт400:00+8всв447774 0.0 1022204
03:00+7в34800 0.0 1021153
06:00+9ююв45840 0.0 1021233
09:00+9ююв69790 0.0 1021305
12:00+14ююв8105911 0.0 1019621
15:00+18ю810438 0.0 10161545
18:00+18ю8104320 0.0 1015957
21:00+12зсз91262100 1.3 1020905
5 марта, пт
пт500:00+9зсз10126699 1.4 10261301
03:00+5ссз7872100 1.0 1030744
06:00+4с357255 1.0 1033448
09:00+4св44723 0.0 1034412
12:00+7св33551 0.0 1031733
15:00+10в34430 0.0 10271084
18:00+11в34390 0.0 10241184
21:00+9ссв56520 0.0 1024245
6 марта, сб
сб600:00+7св586238 0.0 1021232
03:00+7св456282 0.0 1017133
06:00+7ссв455690 0.0 1015136
09:00+7ссв4649100 0.0 1013204
12:00+11ссв5636100 0.0 1012306
15:00+13сз5534100 0.0 1012504
18:00+13с6736100 0.0 1012389
21:00+12св5741100 0.0 1014225